EW4484 Weather Reports


Display with metric or nautical units.
time (UTC)temp
F
wind
direction
speed
MPH
gust
MPH
rain 1hr
in
rain 24hr
in
rain mn
in
humidity
%
barometer
mb
20190119071406 50 344 6.0 10.0 0.00 0.00 0.00 71 1021.0
20190119070405 50 312 4.0 15.0 0.00 0.00 0.00 71 1021.0
20190119065405 50 329 6.0 13.0 0.00 0.00 0.00 71 1021.0
20190119064406 43 304 3.0 7.0 0.00 0.00 0.00 100 1021.0
20190119062407 32 0 0.0 0.0 0.00 0.00 0.00 100 1021.0
20190119061406 54 333 6.0 13.0 0.00 0.00 0.00 40 1021.0
20190119060406 54 332 4.0 14.0 0.00 0.00 0.00 40 1022.0
20190119055406 55 353 7.0 12.0 0.00 0.00 0.00 40 1022.0
20190119054405 54 319 4.0 14.0 0.00 0.00 0.00 40 1022.0
20190119053406 55 310 6.0 10.0 0.00 0.00 0.00 40 1022.0
20190119052406 54 320 12.0 17.0 0.00 0.00 0.00 40 1022.0
20190119051406 55 346 4.0 13.0 0.00 0.00 0.00 40 1022.0
20190119050406 56 318 6.0 13.0 0.00 0.00 0.00 40 1023.0
20190119045406 55 301 3.0 13.0 0.00 0.00 0.00 40 1023.0
20190119044406 55 305 5.0 12.0 0.00 0.00 0.00 40 1023.0
20190119043405 55 342 7.0 14.0 0.00 0.00 0.00 40 1023.0
20190119042405 54 324 7.0 17.0 0.00 0.00 0.00 40 1022.0
20190119041405 55 327 8.0 14.0 0.00 0.00 0.00 40 1022.0
20190119040406 56 336 5.0 10.0 0.00 0.00 0.00 40 1023.0
20190119035405 55 332 4.0 15.0 0.00 0.00 0.00 40 1024.0
20190119034405 55 336 6.0 15.0 0.00 0.00 0.00 40 1024.0
20190119033406 55 331 5.0 10.0 0.00 0.00 0.00 40 1024.0
20190119032406 54 330 6.0 12.0 0.00 0.00 0.00 40 1025.0
20190119031405 53 349 9.0 15.0 0.00 0.00 0.00 41 1025.0
20190119030406 54 327 4.0 13.0 0.00 0.00 0.00 40 1025.0
20190119025406 53 333 9.0 14.0 0.00 0.00 0.00 41 1025.0
20190119024405 53 326 7.0 12.0 0.00 0.00 0.00 41 1025.0
20190119023406 44 358 3.0 13.0 0.00 0.00 0.00 100 1025.0
20190119021406 53 317 5.0 13.0 0.00 0.00 0.00 41 1025.0
20190119020406 53 308 5.0 13.0 0.00 0.00 0.00 41 1026.0
20190119015406 53 351 5.0 12.0 0.00 0.00 0.00 41 1026.0
20190119014405 53 349 3.0 9.0 0.00 0.00 0.00 41 1026.0
20190119013405 52 325 6.0 10.0 0.00 0.00 0.00 41 1026.0
20190119012405 51 353 5.0 12.0 0.00 0.00 0.00 41 1026.0
20190119011405 50 287 6.0 15.0 0.00 0.00 0.00 41 1026.0
20190119010406 50 351 7.0 14.0 0.00 0.00 0.00 41 1027.0
20190119005405 49 331 7.0 12.0 0.00 0.00 0.00 41 1027.0
20190119004405 49 317 9.0 13.0 0.00 0.00 0.00 41 1027.0
20190118230405 44 329 5.0 10.0 0.00 0.00 0.00 43 1026.0
20190118225405 42 325 4.0 10.0 0.00 0.00 0.00 43 1025.0
20190118224405 39 323 3.0 8.0 0.00 0.00 0.00 43 1025.0
20190118223405 39 305 2.0 8.0 0.00 0.00 0.00 43 1026.0
20190118222405 39 312 2.0 8.0 0.00 0.00 0.00 44 1025.0
20190118221405 39 289 5.0 9.0 0.00 0.00 0.00 44 1025.0
20190118220405 38 317 3.0 10.0 0.00 0.00 0.00 44 1023.0
20190118215405 38 316 4.0 10.0 0.00 0.00 0.00 44 1023.0
20190118214405 38 307 3.0 6.0 0.00 0.00 0.00 44 1023.0
20190118213405 38 302 5.0 13.0 0.00 0.00 0.00 44 1024.0
20190118212405 38 8 3.0 9.0 0.00 0.00 0.00 44 1025.0
20190118211405 38 337 5.0 10.0 0.00 0.00 0.00 44 1025.0
20190118210406 38 321 7.0 13.0 0.00 0.00 0.00 44 1025.0
20190118205406 38 323 5.0 15.0 0.00 0.00 0.00 44 1027.0
20190118204405 38 322 5.0 10.0 0.00 0.00 0.00 44 1027.0
20190118203405 38 335 4.0 12.0 0.00 0.00 0.00 44 1026.0
20190118202405 38 339 5.0 9.0 0.00 0.00 0.00 44 1027.0
20190118201405 38 333 5.0 10.0 0.00 0.00 0.00 44 1027.0
20190118200405 39 326 6.0 10.0 0.00 0.00 0.00 44 1027.0
20190118195405 39 315 6.0 10.0 0.00 0.00 0.00 44 1027.0
20190118194405 38 294 5.0 10.0 0.00 0.00 0.00 44 1027.0
20190118193405 38 310 5.0 12.0 0.00 0.00 0.00 44 1027.0
20190118192405 37 328 2.0 8.0 0.00 0.00 0.00 44 1027.0
20190118191405 38 337 1.0 6.0 0.00 0.00 0.00 44 1027.0
20190118190405 38 325 2.0 6.0 0.00 0.00 0.00 44 1027.0
20190118185405 38 23 5.0 12.0 0.00 0.00 0.00 44 1027.0
20190118184405 38 312 4.0 8.0 0.00 0.00 0.00 44 1027.0
20190118183405 38 313 3.0 6.0 0.00 0.00 0.00 44 1027.0
20190118182404 38 304 4.0 8.0 0.00 0.00 0.00 44 1027.0
20190118181405 38 296 5.0 9.0 0.00 0.00 0.00 44 1027.0
20190118175405 38 338 2.0 6.0 0.00 0.00 0.00 44 1027.0
20190118174405 38 309 2.0 3.0 0.00 0.00 0.00 44 1027.0
20190118173406 38 325 1.0 3.0 0.00 0.00 0.00 44 1026.0
20190118172405 39 22 0.0 6.0 0.00 0.00 0.00 44 1026.0
20190118171405 39 301 2.0 6.0 0.00 0.00 0.00 43 1026.0
20190118170405 40 332 3.0 9.0 0.00 0.00 0.00 43 1027.0
20190118165405 40 310 4.0 8.0 0.00 0.00 0.00 43 1027.0
20190118164405 40 313 3.0 8.0 0.00 0.00 0.00 43 1027.0
20190118163405 40 316 5.0 8.0 0.00 0.00 0.00 43 1027.0
20190118162405 40 333 3.0 9.0 0.00 0.00 0.00 43 1027.0
20190118161405 40 284 5.0 9.0 0.00 0.00 0.00 43 1027.0
20190118160405 39 304 3.0 9.0 0.00 0.00 0.00 43 1027.0
20190118155405 39 250 3.0 6.0 0.00 0.00 0.00 43 1027.0
20190118154405 39 299 4.0 8.0 0.00 0.00 0.00 43 1027.0
20190118153405 39 306 5.0 10.0 0.00 0.00 0.00 43 1027.0
20190118152406 39 319 3.0 8.0 0.00 0.00 0.00 43 1027.0
20190118150405 39 231 5.0 8.0 0.00 0.00 0.00 43 1027.0
20190118145405 39 275 5.0 10.0 0.00 0.00 0.00 43 1027.0
20190118144405 39 273 6.0 12.0 0.00 0.00 0.00 44 1027.0
20190118143405 39 302 4.0 10.0 0.00 0.00 0.00 44 1027.0
20190118142404 39 314 5.0 10.0 0.00 0.00 0.00 44 1027.0
20190118141405 39 249 3.0 8.0 0.00 0.00 0.00 44 1027.0
20190118140405 39 282 6.0 13.0 0.00 0.00 0.00 44 1027.0
20190118135405 39 295 6.0 10.0 0.00 0.00 0.00 43 1027.0
20190118134405 40 268 4.0 8.0 0.00 0.00 0.00 43 1027.0
20190118133405 40 299 6.0 12.0 0.00 0.00 0.00 43 1027.0
20190118132405 40 307 6.0 14.0 0.00 0.00 0.00 43 1026.0
20190118131404 40 324 6.0 15.0 0.00 0.00 0.00 43 1026.0
20190118130405 40 314 6.0 13.0 0.00 0.00 0.00 43 1026.0
20190118125405 40 268 7.0 13.0 0.00 0.00 0.00 43 1026.0
20190118124404 40 316 5.0 13.0 0.00 0.00 0.00 43 1026.0
20190118123405 40 331 6.0 13.0 0.00 0.00 0.00 43 1026.0
20190118122405 40 7 7.0 15.0 0.00 0.00 0.00 43 1025.0
20190118121405 40 336 10.0 14.0 0.00 0.00 0.00 43 1025.0
20190118120405 40 302 8.0 15.0 0.00 0.00 0.00 43 1026.0
20190118115405 40 311 6.0 14.0 0.00 0.00 0.00 43 1026.0
20190118114405 40 290 7.0 12.0 0.00 0.00 0.00 43 1026.0
20190118113405 41 335 7.0 13.0 0.00 0.00 0.00 43 1026.0
20190118112405 41 336 9.0 17.0 0.00 0.00 0.00 43 1026.0
20190118111405 41 320 9.0 17.0 0.00 0.00 0.00 43 1026.0
20190118110405 41 309 9.0 14.0 0.00 0.00 0.00 43 1025.0
20190118105404 41 335 7.0 17.0 0.00 0.00 0.00 43 1025.0
20190118104405 41 330 10.0 17.0 0.00 0.00 0.00 43 1025.0
20190118103405 42 344 10.0 17.0 0.00 0.00 0.00 43 1025.0
20190118102405 42 309 9.0 17.0 0.00 0.00 0.00 43 1025.0
20190118101405 42 306 8.0 20.0 0.00 0.00 0.00 43 1025.0
20190118100404 42 316 6.0 14.0 0.00 0.00 0.00 43 1024.0
20190118095405 42 312 6.0 13.0 0.00 0.00 0.00 43 1025.0
20190118094404 42 319 5.0 12.0 0.00 0.00 0.00 43 1025.0
20190118093405 42 327 5.0 17.0 0.00 0.00 0.00 43 1024.0
20190118092404 43 313 9.0 25.0 0.00 0.00 0.00 43 1023.0
20190118091405 43 334 9.0 18.0 0.00 0.00 0.00 43 1023.0
20190118090405 43 294 7.0 14.0 0.00 0.00 0.00 43 1023.0
20190118085405 43 337 12.0 20.0 0.00 0.00 0.00 43 1023.0
20190118084405 43 326 9.0 29.0 0.00 0.00 0.00 43 1023.0
20190118083404 44 323 9.0 22.0 0.00 0.00 0.00 43 1023.0
20190118082405 44 348 12.0 24.0 0.00 0.00 0.00 43 1022.0
20190118081404 44 320 11.0 20.0 0.00 0.00 0.00 43 1022.0